Stanley, ID

12:13 PM MDT on August 29, 2016 (GMT -0600)
Stanley

Weather History for KSNT - November, 2012

Change the Weather History Date:

Monday, November 19, 2012

  Actual Average Record
Temperature  
Mean Temperature 32 °F 22 °F  
Max Temperature 41 °F 33 °F 51 °F (1976)
Min Temperature 22 °F 11 °F -19 °F (1979)
Degree Days  
Heating Degree Days 33 43  
Month to date heating degree days 654 729  
Since 1 July heating degree days 2241 2593  
Cooling Degree Days 0 0  
Month to date cooling degree days 0 0  
Year to date cooling degree days 3 3  
Moisture  
Dew Point 26 °F    
Average Humidity 78    
Maximum Humidity 96    
Minimum Humidity 59    
Precipitation  
Precipitation 0.00 in 0.07 in 0.61 in (1926)
Month to date precipitation 0.81 1.56  
Year to date precipitation 18.86 15.24  
Sea Level Pressure  
Sea Level Pressure 30.07 in    
Wind  
Wind Speed 8 mph (SE)    
Max Wind Speed 20 mph    
Max Gust Speed 28 mph    
T = Trace of Precipitation, MM = Missing Value Source: NWS Daily Summary

Daily Weather History Graph

Daily Weather History Graph

Search for Another Location

Airport or City:

Trip Planner

Search our weather history database for the weather conditions in past years. The results will help you decide how hot, cold, wet, or windy it might be!

Date:

Astronomy

Nov. 19, 2012 Rise Set
Actual Time 7:41 AM MST 5:08 PM MST
Civil Twilight 7:09 AM MST 5:40 PM MST
Nautical Twilight 6:34 AM MST 6:15 PM MST
Astronomical Twilight 5:59 AM MST 6:50 PM MST
Moon 12:41 PM MST (11/19) 11:47 PM MST (11/19)
Length of Visible Light 10h 31m
Length of Day
9h 27m
Waxing Crescent, 41% of the Moon is Illuminated
Nov 19
Waxing Crescent
Nov 20
First Quarter
Nov 28
Full
Dec 6
Last Quarter
Dec 13
New

Hourly Weather History & Observations

Time (MST) Temp. Windchill Dew Point Humidity Pressure Visibility Wind Dir Wind Speed Gust Speed Precip Events Conditions
12:51 AM 25.0 °F 19.3 °F 19.9 °F 81% 30.03 in - North 4.6 mph - N/A   Unknown
1:51 AM 26.1 °F - 21.0 °F 81% 30.05 in - Calm Calm - N/A   Unknown
2:51 AM 26.1 °F 21.9 °F 21.9 °F 84% 30.04 in - South 3.5 mph - N/A   Unknown
3:51 AM 26.1 °F 20.5 °F 21.9 °F 84% 30.05 in - NNE 4.6 mph - N/A   Unknown
4:51 AM 24.1 °F - 21.0 °F 88% 30.08 in - Calm Calm - N/A   Unknown
5:51 AM 24.1 °F 19.7 °F 21.0 °F 88% 30.10 in - Variable 3.5 mph - N/A   Unknown
6:51 AM 23.0 °F - 21.0 °F 92% 30.13 in - Calm Calm - N/A   Unknown
7:51 AM 23.0 °F - 21.0 °F 92% 30.14 in - Calm Calm - N/A   Unknown
8:51 AM 33.1 °F 26.1 °F 24.1 °F 70% 30.12 in - SSE 8.1 mph - N/A   Unknown
9:51 AM 35.1 °F 26.9 °F 25.0 °F 67% 30.12 in - SE 11.5 mph 19.6 mph N/A   Unknown
10:51 AM 37.0 °F 28.5 °F 26.1 °F 65% 30.11 in - SE 13.8 mph 20.7 mph N/A   Unknown
11:51 AM 37.9 °F 31.5 °F 27.0 °F 65% 30.10 in - SE 9.2 mph 20.7 mph N/A   Unknown
12:51 PM 39.9 °F 33.4 °F 27.0 °F 60% 30.06 in - SE 10.4 mph 21.9 mph N/A   Unknown
1:51 PM 39.0 °F 31.4 °F 28.9 °F 67% 30.05 in - SE 12.7 mph 21.9 mph N/A   Unknown
2:51 PM 37.9 °F 30.0 °F 28.9 °F 70% 30.06 in - SE 12.7 mph 24.2 mph N/A   Unknown
3:51 PM 37.0 °F 29.8 °F 30.0 °F 76% 30.06 in - SE 10.4 mph 21.9 mph N/A   Unknown
4:51 PM 37.0 °F 30.4 °F 30.0 °F 76% 30.07 in - SSE 9.2 mph 20.7 mph N/A   Unknown
5:51 PM 37.9 °F 32.7 °F 30.0 °F 73% 30.06 in - Variable 6.9 mph - N/A   Unknown
6:51 PM 37.9 °F 30.0 °F 30.0 °F 73% 30.07 in - SSE 12.7 mph 18.4 mph N/A   Unknown
7:51 PM 37.9 °F 32.1 °F 30.0 °F 73% 30.07 in - SE 8.1 mph 16.1 mph N/A   Unknown
8:51 PM 37.9 °F 30.0 °F 30.9 °F 76% 30.02 in - SE 12.7 mph 26.5 mph N/A   Unknown
9:51 PM 37.0 °F 29.3 °F 32.0 °F 82% 30.04 in - SSE 11.5 mph 23.0 mph N/A   Unknown
10:51 PM 37.9 °F 32.7 °F 30.9 °F 76% 30.01 in - SSE 6.9 mph 17.3 mph N/A   Unknown
11:51 PM 39.9 °F 32.9 °F 30.0 °F 68% 29.99 in - SE 11.5 mph 21.9 mph N/A   Unknown